THOR ABLESTAR DEB, 645

Orbit data source: Space-Track

THOR ABLESTAR DEB, 645 is space debris in LEO originally from a launch on Thu, 29 Jun 1961 UTC launched from the Air Force Eastern Test Range (AFETR). Debris objects in space refer to the collection of defunct objects orbiting the Earth. Examples of debris include non-operational satellites, rocket bodies, and fragments generated from explosions, collisions, or faulty payload assembly.

Loading next visibility...
Identifier
645, 1961-015GW
Orbit
LEO
Country
Flag of USUS
Related business
Manufacturer
Unknown
Mission
Spacecraft
Bus & Motor
Unknown
Mass
Unknown
Launch date (UTC)
1961-06-29 (65 years ago)
Launch vehicle
Unknown
Launch site
Air Force Eastern Test Range (AFETR)
Object type
Payload
Rocket body
Debris
Shape & HBR
Unknown shape, 0.1 m
Radar Cross Section
Small (<0.1 m²)

Expand to show TLE details & history
Last TLE update: 11 hours ago

TLE from 11 hours ago
0 THOR ABLESTAR DEB
1   645U 61015GW  26036.26407759  .00000317  00000-0  78237-3 0  9996
2   645  66.5864 144.5804 0412588 206.2714 167.8656 13.04831325 62601
Epoch: 2026-02-05T06:20Z
TLE epoch observation values (Epoch: 2026-02-05T06:20:16.303Z)
Latitude
13.79777°
Longitude
-79.83135°
Altitude
1,552.456 km
Speed
6.948 km/s
True Right ascension
10h 02m 37s
True Declination
13° 43' 35"
Sunlit
Object was in full shadow at epoch
Visualization orbit readout
Latitude
Unknown
Longitude
Unknown
Altitude
Unknown
Speed
Unknown
Apparent Right ascension
Unknown
Apparent Declination
Unknown
Sunlit
N/A
Visualization observer readout
Local Sidereal Time
19:47:05
Azimuth
Unknown
Elevation
Unknown
Doppler factor
Unknown
Orbital elements
Apogee altitude
1,556.085 km
Perigee altitude
927.314 km
Semi-major axis
7,619.837 km
Eccentricity
0.04126
Inclination
66.5864°
RAAN
144.5804°
Arg. of periapsis
206.2714°
True anomaly
168.8116°
Mean anomaly
167.8656°
Eccentric anomaly
168.34323°
Mean motion
3.26306 °/min
Orbital period
110.33 mins
BSTAR
0.00078237

Documentation

Showing up to 5 results
|